Location: Wangen+im+Allg�u
(47.7098°N, 9.8383°E)
Time: 04:47:17
(UTC+01:00)

Tiangong 1 - Visible Passes

Search period start: 22 November 2017 00:00
Search period end: 02 December 2017 00:00
Orbit: 284 x 308 km, 42.8° (Epoch: 21 November)

Date Brightness Start Highest point End Pass type
(mag) Time Alt. Az. Time Alt. Az. Time Alt. Az.
27 Nov 2.9 18:00:40 10° SSW 18:02:12 14° SSE 18:02:44 14° SSE visible
28 Nov 2.5 18:06:15 10° SW 18:08:15 20° SSE 18:08:39 19° SSE visible
29 Nov 2.2 18:12:00 10° SW 18:14:11 24° S 18:14:27 24° SSE visible
30 Nov 2.2 18:17:47 10° WSW 18:20:03 26° S 18:20:09 26° S visible
01 Dec 2.3 18:23:34 10° WSW 18:25:46 25° S 18:25:46 25° S visible
